Location: Taupo
(38.6830°S, 176.0830°E)
Time: 09:45:13
(UTC+13:00)

Cosmos 2360 Rocket - Pass Details

Date: 24 January 2019
Orbit: 834 x 845 km, 71.0° (Epoch: 19 February)

Event Time Altitude Azimuth Distance (km) Brightness Sun altitude
Exits shadow 21:02:03 - 39° (NE) 3,025 4.5 -5.1°
Reaches altitude 10° 21:04:42 10° 60° (ENE) 2,475 3.9 -5.6°
Maximum altitude 21:06:57 12° 83° (E) 2,308 3.9 -5.9°
Drops below altitude 10° 21:09:12 10° 107° (ESE) 2,487 4.3 -6.3°
Sets 21:13:14 0° 135° (SE) 3,432 5.2 -7.0°
